EZY929Z EGNT-EGAC

Flight info

Callsign EZY929Z
Flight time 0h 53m
Altitude 23000
Route GIRLI3X GIRLI P18 GASKO/N0437F250 P16 RIBEL/N0424F230 P16 CROFT/N0430F240 Y70 KOLID L70 GUNTU Z196 DIGMA M146 ERDUV Z198 MASOP M148 MAGEE DCT
Aircraft A320/M-SDE3FGHIRWY/LB1

Departure

Time 2026-05-08 11:36
Airport Newcastle International Airport (EGNT)

Arrival

Time 2026-05-08 12:29
Airport George Best Belfast City Airport (EGAC)
Time Latitude Longitude Altitude Speed Heading
2026-05-08 10:53 55.03745 -1.70760 271 ft 0 kts 184°
2026-05-08 11:24 55.03755 -1.70759 270 ft 4 kts 184°
2026-05-08 11:24 55.03778 -1.70756 269 ft 3 kts 184°
2026-05-08 11:24 55.03801 -1.70745 268 ft 4 kts 236°
2026-05-08 11:24 55.03807 -1.70703 268 ft 4 kts 274°
2026-05-08 11:25 55.03805 -1.70659 268 ft 4 kts 274°
2026-05-08 11:25 55.03803 -1.70612 268 ft 4 kts 274°
2026-05-08 11:25 55.03801 -1.70565 268 ft 4 kts 274°
2026-05-08 11:25 55.03799 -1.70524 268 ft 3 kts 274°
2026-05-08 11:26 55.03795 -1.70479 268 ft 4 kts 290°
2026-05-08 11:26 55.03782 -1.70440 268 ft 4 kts 326°
2026-05-08 11:26 55.03761 -1.70424 269 ft 4 kts
2026-05-08 11:26 55.03739 -1.70430 270 ft 3 kts
2026-05-08 11:27 55.03718 -1.70433 271 ft 0 kts
2026-05-08 11:27 55.03717 -1.70433 271 ft 1 kts
2026-05-08 11:27 55.03718 -1.70433 271 ft 0 kts
2026-05-08 11:30 55.03737 -1.70431 270 ft 7 kts
2026-05-08 11:30 55.03780 -1.70391 268 ft 8 kts 67°
2026-05-08 11:30 55.03780 -1.70305 268 ft 6 kts 95°
2026-05-08 11:30 55.03777 -1.70188 269 ft 14 kts 93°
2026-05-08 11:31 55.03773 -1.70022 270 ft 13 kts 90°
2026-05-08 11:31 55.03781 -1.69882 271 ft 13 kts 82°
2026-05-08 11:31 55.03807 -1.69656 270 ft 24 kts 74°
2026-05-08 11:31 55.03873 -1.69368 267 ft 27 kts 65°
2026-05-08 11:32 55.03955 -1.69058 265 ft 29 kts 65°
2026-05-08 11:32 55.04041 -1.68737 262 ft 30 kts 65°
2026-05-08 11:32 55.04131 -1.68395 258 ft 32 kts 65°
2026-05-08 11:32 55.04228 -1.68033 254 ft 34 kts 65°
2026-05-08 11:33 55.04319 -1.67692 251 ft 21 kts 65°
2026-05-08 11:33 55.04329 -1.67506 249 ft 13 kts 92°
2026-05-08 11:33 55.04316 -1.67409 248 ft 0 kts 124°
2026-05-08 11:34 55.04289 -1.67372 248 ft 10 kts 156°
2026-05-08 11:34 55.04230 -1.67371 248 ft 8 kts 202°
2026-05-08 11:35 55.04201 -1.67437 249 ft 6 kts 246°
2026-05-08 11:35 55.04192 -1.67473 249 ft 0 kts 246°
2026-05-08 11:35 55.04127 -1.67727 250 ft 61 kts 245°
2026-05-08 11:35 55.03847 -1.68784 261 ft 127 kts 245°
2026-05-08 11:36 55.03416 -1.70457 430 ft 164 kts 246°
2026-05-08 11:36 55.02939 -1.72210 1159 ft 158 kts 244°
2026-05-08 11:36 55.02226 -1.73675 1814 ft 163 kts 216°
2026-05-08 11:36 55.01132 -1.74445 2323 ft 180 kts 193°
2026-05-08 11:37 54.99851 -1.74906 2799 ft 195 kts 196°
2026-05-08 11:37 54.98475 -1.75617 3302 ft 217 kts 200°
2026-05-08 11:37 54.97028 -1.76581 4020 ft 228 kts 203°
2026-05-08 11:37 54.95562 -1.77707 4893 ft 234 kts 205°
2026-05-08 11:38 54.94049 -1.78968 5574 ft 250 kts 208°
2026-05-08 11:38 54.93019 -1.79920 6121 ft 256 kts 208°
2026-05-08 11:38 54.91429 -1.81369 7067 ft 260 kts 207°
2026-05-08 11:38 54.89789 -1.82768 7771 ft 266 kts 205°
2026-05-08 11:39 54.88089 -1.84105 8218 ft 269 kts 204°
2026-05-08 11:39 54.86362 -1.85378 9176 ft 271 kts 203°
2026-05-08 11:39 54.84004 -1.87028 10379 ft 276 kts 200°
2026-05-08 11:39 54.82770 -1.87580 10909 ft 280 kts 189°
2026-05-08 11:40 54.80808 -1.87607 11700 ft 286 kts 173°
2026-05-08 11:40 54.78880 -1.86621 12511 ft 295 kts 158°
2026-05-08 11:40 54.76941 -1.85075 12773 ft 318 kts 157°
2026-05-08 11:40 54.74877 -1.83404 13221 ft 333 kts 156°
2026-05-08 11:41 54.72717 -1.81852 13870 ft 338 kts 165°
2026-05-08 11:41 54.70405 -1.81101 14567 ft 339 kts 178°
2026-05-08 11:41 54.68050 -1.81272 15286 ft 341 kts 190°
2026-05-08 11:41 54.65703 -1.82020 15990 ft 343 kts 192°
2026-05-08 11:42 54.63348 -1.82782 16695 ft 344 kts 192°
2026-05-08 11:42 54.60974 -1.83545 17342 ft 349 kts 192°
2026-05-08 11:42 54.58575 -1.84305 17989 ft 352 kts 191°
2026-05-08 11:42 54.56153 -1.85065 18611 ft 355 kts 192°
2026-05-08 11:43 54.53710 -1.85832 19230 ft 358 kts 192°
2026-05-08 11:43 54.51245 -1.86607 19828 ft 362 kts 192°
2026-05-08 11:43 54.48760 -1.87389 20410 ft 365 kts 192°
2026-05-08 11:43 54.46253 -1.88174 20969 ft 368 kts 192°
2026-05-08 11:44 54.43728 -1.88963 21509 ft 371 kts 192°
2026-05-08 11:44 54.41183 -1.89759 22029 ft 373 kts 192°
2026-05-08 11:44 54.38619 -1.90567 22527 ft 377 kts 192°
2026-05-08 11:44 54.36028 -1.91384 22961 ft 380 kts 192°
2026-05-08 11:45 54.33431 -1.92198 23069 ft 376 kts 192°
2026-05-08 11:45 54.30879 -1.92989 23091 ft 370 kts 192°
2026-05-08 11:45 54.28358 -1.93766 23091 ft 368 kts 192°
2026-05-08 11:45 54.25841 -1.94551 23093 ft 367 kts 194°
2026-05-08 11:46 54.23421 -1.95869 23092 ft 364 kts 205°
2026-05-08 11:46 54.21218 -1.97969 23091 ft 363 kts 216°
2026-05-08 11:46 54.19285 -2.00733 23090 ft 362 kts 224°
2026-05-08 11:46 54.17457 -2.03690 23092 ft 362 kts 224°
2026-05-08 11:47 54.15623 -2.06637 23090 ft 362 kts 224°
2026-05-08 11:47 54.13787 -2.09579 23090 ft 362 kts 224°
2026-05-08 11:47 54.11948 -2.12516 23089 ft 362 kts 223°
2026-05-08 11:47 54.10109 -2.15450 23090 ft 362 kts 223°
2026-05-08 11:48 54.08269 -2.18383 23090 ft 362 kts 223°
2026-05-08 11:48 54.06428 -2.21305 23090 ft 362 kts 223°
2026-05-08 11:48 54.04587 -2.24228 23090 ft 362 kts 223°
2026-05-08 11:48 54.02717 -2.27108 23092 ft 363 kts 219°
2026-05-08 11:49 54.00605 -2.29451 23091 ft 363 kts 208°
2026-05-08 11:49 53.98274 -2.31123 23089 ft 364 kts 202°
2026-05-08 11:49 53.95901 -2.32643 23087 ft 364 kts 202°
2026-05-08 11:49 53.93528 -2.34164 23087 ft 365 kts 202°
2026-05-08 11:50 53.91154 -2.35689 23086 ft 365 kts 202°
2026-05-08 11:50 53.88784 -2.37213 23086 ft 365 kts 202°
2026-05-08 11:50 53.86405 -2.38744 23084 ft 365 kts 202°
2026-05-08 11:50 53.84033 -2.40275 23083 ft 365 kts 202°
2026-05-08 11:51 53.81654 -2.41811 23083 ft 365 kts 202°
2026-05-08 11:51 53.79281 -2.43334 23083 ft 365 kts 202°
2026-05-08 11:51 53.76902 -2.44858 23083 ft 365 kts 202°
2026-05-08 11:51 53.74524 -2.46378 23084 ft 365 kts 202°
2026-05-08 11:52 53.72145 -2.47890 23084 ft 365 kts 202°
2026-05-08 11:52 53.69762 -2.49397 23084 ft 365 kts 202°
2026-05-08 11:52 53.67386 -2.50904 23084 ft 365 kts 203°
2026-05-08 11:52 53.65138 -2.52848 23083 ft 363 kts 215°
2026-05-08 11:53 53.63198 -2.55553 23082 ft 362 kts 226°
2026-05-08 11:53 53.61646 -2.58880 23081 ft 362 kts 238°
2026-05-08 11:53 53.60535 -2.62683 23081 ft 363 kts 247°
2026-05-08 11:53 53.59583 -2.66617 23078 ft 363 kts 247°
2026-05-08 11:54 53.58623 -2.70558 23079 ft 364 kts 247°
2026-05-08 11:54 53.57876 -2.74619 23080 ft 365 kts 257°
2026-05-08 11:54 53.57603 -2.78866 23082 ft 367 kts 268°
2026-05-08 11:54 53.57767 -2.83166 23082 ft 368 kts 273°
2026-05-08 11:55 53.57989 -2.87459 23079 ft 368 kts 273°
2026-05-08 11:55 53.58204 -2.91754 23079 ft 368 kts 272°
2026-05-08 11:55 53.58412 -2.96049 23081 ft 369 kts 272°
2026-05-08 11:55 53.58615 -3.00344 23084 ft 369 kts 272°
2026-05-08 11:56 53.58817 -3.04655 23087 ft 369 kts 272°
2026-05-08 11:56 53.59018 -3.08960 23091 ft 369 kts 272°
2026-05-08 11:56 53.59219 -3.13270 23094 ft 369 kts 272°
2026-05-08 11:56 53.59503 -3.17568 23095 ft 371 kts 278°
2026-05-08 11:57 53.60032 -3.21823 23098 ft 371 kts 279°
2026-05-08 11:57 53.60566 -3.26078 23102 ft 371 kts 279°
2026-05-08 11:57 53.61098 -3.30329 23109 ft 371 kts 279°
2026-05-08 11:57 53.61626 -3.34585 23109 ft 371 kts 279°
2026-05-08 11:58 53.62151 -3.38843 23114 ft 371 kts 279°
2026-05-08 11:58 53.62673 -3.43106 23112 ft 371 kts 279°
2026-05-08 11:58 53.63189 -3.47359 23116 ft 371 kts 279°
2026-05-08 11:59 53.64899 -3.55524 23118 ft 378 kts 303°
2026-05-08 11:59 53.66715 -3.58760 23112 ft 382 kts 314°
2026-05-08 11:59 53.68672 -3.61790 23110 ft 382 kts 314°
2026-05-08 11:59 53.70639 -3.64819 23107 ft 382 kts 314°
2026-05-08 12:00 53.72600 -3.67844 23108 ft 382 kts 314°
2026-05-08 12:00 53.74534 -3.70833 23104 ft 382 kts 314°
2026-05-08 12:00 53.76494 -3.73872 23102 ft 382 kts 314°
2026-05-08 12:00 53.78475 -3.76949 23100 ft 382 kts 314°
2026-05-08 12:01 53.80432 -3.79997 23099 ft 382 kts 314°
2026-05-08 12:01 53.82390 -3.83048 23096 ft 382 kts 314°
2026-05-08 12:01 53.84320 -3.86056 23094 ft 382 kts 314°
2026-05-08 12:01 53.86276 -3.89109 23091 ft 382 kts 314°
2026-05-08 12:02 53.88253 -3.92203 23089 ft 382 kts 314°
2026-05-08 12:02 53.90180 -3.95220 23087 ft 382 kts 314°
2026-05-08 12:02 53.92135 -3.98285 23088 ft 382 kts 314°
2026-05-08 12:02 53.94087 -4.01352 23088 ft 382 kts 313°
2026-05-08 12:03 53.96064 -4.04462 23088 ft 382 kts 313°
2026-05-08 12:03 53.97989 -4.07500 23087 ft 381 kts 313°
2026-05-08 12:03 53.99933 -4.10571 23085 ft 382 kts 313°
2026-05-08 12:03 54.01875 -4.13641 23084 ft 382 kts 313°
2026-05-08 12:04 54.03823 -4.16719 23084 ft 382 kts 313°
2026-05-08 12:04 54.05768 -4.19800 23083 ft 382 kts 313°
2026-05-08 12:04 54.07708 -4.22876 23081 ft 382 kts 313°
2026-05-08 12:04 54.09648 -4.25962 23080 ft 382 kts 313°
2026-05-08 12:05 54.11589 -4.29053 23078 ft 382 kts 313°
2026-05-08 12:05 54.13531 -4.32146 23077 ft 382 kts 313°
2026-05-08 12:05 54.15427 -4.35311 23076 ft 380 kts 307°
2026-05-08 12:05 54.17017 -4.38873 23074 ft 377 kts 301°
2026-05-08 12:06 54.18518 -4.42537 23076 ft 377 kts 301°
2026-05-08 12:06 54.20023 -4.46205 23075 ft 377 kts 301°
2026-05-08 12:06 54.21528 -4.49873 23077 ft 377 kts 301°
2026-05-08 12:06 54.23032 -4.53533 23076 ft 376 kts 301°
2026-05-08 12:07 54.24538 -4.57199 23074 ft 376 kts 301°
2026-05-08 12:07 54.26039 -4.60862 23073 ft 376 kts 301°
2026-05-08 12:07 54.27536 -4.64528 23072 ft 376 kts 301°
2026-05-08 12:07 54.29032 -4.68205 23073 ft 376 kts 301°
2026-05-08 12:08 54.30524 -4.71882 23075 ft 376 kts 301°
2026-05-08 12:08 54.32015 -4.75561 23077 ft 376 kts 301°
2026-05-08 12:08 54.33512 -4.79256 23080 ft 376 kts 300°
2026-05-08 12:08 54.35003 -4.82940 23079 ft 377 kts 300°
2026-05-08 12:09 54.36493 -4.86632 23084 ft 377 kts 300°
2026-05-08 12:09 54.37981 -4.90323 23085 ft 376 kts 300°
2026-05-08 12:09 54.39449 -4.93963 22937 ft 365 kts 300°
2026-05-08 12:09 54.40877 -4.97514 22556 ft 359 kts 300°
2026-05-08 12:10 54.42287 -5.01031 22119 ft 356 kts 300°
2026-05-08 12:10 54.43689 -5.04528 21678 ft 354 kts 300°
2026-05-08 12:10 54.45082 -5.07994 21230 ft 352 kts 300°
2026-05-08 12:10 54.46473 -5.11433 20791 ft 349 kts 300°
2026-05-08 12:11 54.47858 -5.14853 20359 ft 347 kts 300°
2026-05-08 12:11 54.49235 -5.18250 19925 ft 345 kts 300°
2026-05-08 12:11 54.50696 -5.21535 19491 ft 346 kts 308°
2026-05-08 12:11 54.52474 -5.24342 19054 ft 348 kts 317°
2026-05-08 12:12 54.54372 -5.26910 18622 ft 346 kts 317°
2026-05-08 12:12 54.56259 -5.29469 18205 ft 344 kts 317°
2026-05-08 12:12 54.58133 -5.32017 17781 ft 342 kts 317°
2026-05-08 12:12 54.60001 -5.34561 17371 ft 340 kts 317°
2026-05-08 12:13 54.61855 -5.37086 16959 ft 338 kts 317°
2026-05-08 12:13 54.63696 -5.39603 16564 ft 336 kts 318°
2026-05-08 12:13 54.65526 -5.42106 16180 ft 335 kts 318°
2026-05-08 12:13 54.67347 -5.44594 15795 ft 333 kts 318°
2026-05-08 12:14 54.69159 -5.47073 15418 ft 331 kts 318°
2026-05-08 12:14 54.70961 -5.49544 15046 ft 329 kts 318°
2026-05-08 12:14 54.72741 -5.52009 14668 ft 327 kts 315°
2026-05-08 12:14 54.74177 -5.54964 14307 ft 318 kts 296°
2026-05-08 12:15 54.74956 -5.58473 13944 ft 309 kts 277°
2026-05-08 12:15 54.75047 -5.62138 13555 ft 303 kts 260°
2026-05-08 12:15 54.74484 -5.65604 13173 ft 298 kts 243°
2026-05-08 12:15 54.73358 -5.68594 12591 ft 301 kts 226°
2026-05-08 12:16 54.71750 -5.71001 11900 ft 308 kts 219°
2026-05-08 12:16 54.70139 -5.73356 11560 ft 303 kts 219°
2026-05-08 12:16 54.68460 -5.75653 10881 ft 310 kts 217°
2026-05-08 12:16 54.66748 -5.77918 10324 ft 311 kts 217°
2026-05-08 12:17 54.65046 -5.80158 10133 ft 301 kts 217°
2026-05-08 12:17 54.63961 -5.81593 10062 ft 293 kts 217°
2026-05-08 12:17 54.62378 -5.83700 9918 ft 282 kts 218°
2026-05-08 12:17 54.60840 -5.85764 9589 ft 279 kts 218°
2026-05-08 12:18 54.59317 -5.87820 9227 ft 277 kts 218°
2026-05-08 12:18 54.57750 -5.89714 8911 ft 273 kts 206°
2026-05-08 12:18 54.55986 -5.90884 8554 ft 271 kts 199°
2026-05-08 12:18 54.54203 -5.91910 8173 ft 270 kts 199°
2026-05-08 12:19 54.52423 -5.92922 7795 ft 269 kts 199°
2026-05-08 12:19 54.50653 -5.93931 7409 ft 267 kts 199°
2026-05-08 12:19 54.48889 -5.94936 7011 ft 266 kts 199°
2026-05-08 12:19 54.47139 -5.95936 6612 ft 264 kts 198°
2026-05-08 12:20 54.45365 -5.96617 6372 ft 257 kts 189°
2026-05-08 12:20 54.43642 -5.97065 6244 ft 245 kts 188°
2026-05-08 12:20 54.41994 -5.97478 6125 ft 233 kts 189°
2026-05-08 12:20 54.40421 -5.97871 5993 ft 222 kts 188°
2026-05-08 12:21 54.38944 -5.98241 5864 ft 208 kts 189°
2026-05-08 12:21 54.37551 -5.98589 5677 ft 198 kts 189°
2026-05-08 12:21 54.36233 -5.99017 5477 ft 189 kts 201°
2026-05-08 12:21 54.35182 -6.00295 5201 ft 187 kts 231°
2026-05-08 12:22 54.34672 -6.02316 4861 ft 188 kts 262°
2026-05-08 12:22 54.34849 -6.04515 4545 ft 189 kts 293°
2026-05-08 12:22 54.35665 -6.06247 4229 ft 189 kts 325°
2026-05-08 12:22 54.36889 -6.06991 4028 ft 189 kts 356°
2026-05-08 12:23 54.38204 -6.06878 3830 ft 189 kts
2026-05-08 12:23 54.39520 -6.06713 3504 ft 190 kts
2026-05-08 12:23 54.40835 -6.06549 3198 ft 188 kts
2026-05-08 12:23 54.42133 -6.06386 3014 ft 181 kts
2026-05-08 12:24 54.43341 -6.06237 3005 ft 171 kts
2026-05-08 12:24 54.44519 -6.06091 3014 ft 168 kts
2026-05-08 12:24 54.45686 -6.05875 3025 ft 168 kts 13°
2026-05-08 12:24 54.46741 -6.05042 3014 ft 164 kts 31°
2026-05-08 12:25 54.47656 -6.04043 2999 ft 151 kts 33°
2026-05-08 12:25 54.48505 -6.03067 2932 ft 147 kts 33°
2026-05-08 12:25 54.49348 -6.02084 2792 ft 145 kts 34°
2026-05-08 12:25 54.50190 -6.01092 2620 ft 145 kts 34°
2026-05-08 12:26 54.51005 -6.00127 2450 ft 144 kts 34°
2026-05-08 12:26 54.51826 -5.99151 2248 ft 143 kts 35°
2026-05-08 12:26 54.52646 -5.98177 2068 ft 141 kts 33°
2026-05-08 12:26 54.53448 -5.97227 1895 ft 139 kts 33°
2026-05-08 12:27 54.54246 -5.96292 1703 ft 141 kts 34°
2026-05-08 12:27 54.55064 -5.95345 1482 ft 142 kts 34°
2026-05-08 12:27 54.55854 -5.94397 1346 ft 136 kts 36°
2026-05-08 12:27 54.56601 -5.93425 1194 ft 134 kts 36°
2026-05-08 12:28 54.57360 -5.92505 945 ft 133 kts 33°
2026-05-08 12:28 54.58118 -5.91600 753 ft 132 kts 34°
2026-05-08 12:28 54.58877 -5.90705 636 ft 132 kts 33°
2026-05-08 12:28 54.59643 -5.89815 463 ft 133 kts 34°
2026-05-08 12:29 54.60412 -5.88919 255 ft 133 kts 34°
2026-05-08 12:29 54.61168 -5.88006 84 ft 132 kts 34°
2026-05-08 12:29 54.61894 -5.87148 22 ft 107 kts 34°
2026-05-08 12:29 54.62262 -5.86711 23 ft 28 kts 34°
2026-05-08 12:30 54.62389 -5.86558 23 ft 15 kts 35°
2026-05-08 12:30 54.62451 -5.86438 23 ft 12 kts 352°
2026-05-08 12:30 54.62456 -5.86537 23 ft 8 kts 212°
2026-05-08 12:30 54.62403 -5.86554 23 ft 10 kts 192°
2026-05-08 12:31 54.62302 -5.86667 22 ft 20 kts 215°
2026-05-08 12:31 54.62181 -5.86809 22 ft 22 kts 214°
2026-05-08 12:31 54.62048 -5.86969 23 ft 24 kts 216°
2026-05-08 12:31 54.61917 -5.87129 23 ft 20 kts 216°
2026-05-08 12:32 54.61819 -5.87138 23 ft 15 kts 122°
2026-05-08 12:32 54.61782 -5.87045 22 ft 0 kts 125°
2026-05-08 12:33 54.61780 -5.87042 22 ft 3 kts 125°
2026-05-08 12:33 54.61726 -5.86994 22 ft 10 kts 187°
2026-05-08 12:33 54.61671 -5.87058 24 ft 9 kts 216°
2026-05-08 12:34 54.61622 -5.87117 22 ft 8 kts 214°
2026-05-08 12:34 54.61589 -5.87157 22 ft 0 kts 214°
2026-05-08 12:34 54.61574 -5.87174 24 ft 11 kts 214°
2026-05-08 12:35 54.61545 -5.87179 22 ft 3 kts 161°
2026-05-08 12:35 54.61529 -5.87167 23 ft 2 kts 155°
2026-05-08 12:35 54.61517 -5.87157 22 ft 2 kts 154°
2026-05-08 12:35 54.61515 -5.87155 22 ft 0 kts 154°